Location: Gönnheim
(49.4488°N, 8.2383°E)
Time: 23:42:20
(UTC+00:00)

Cosmos 773 Rocket - Pass Details

Date: 19 May 2025
Orbit: 742 x 772 km, 74.1° (Epoch: 15 June)

Event Time Altitude Azimuth Distance (km) Brightness Sun altitude
Exits shadow 21:51:32 12° 214° (SW) 2,142 6.0 -17.6°
Maximum altitude 21:56:18 66° 296° (WNW) 817 4.3 -17.9°
Drops below altitude 10° 22:01:25 10° 19° (NNE) 2,266 7.2 -18.2°
Sets 22:03:48 0° 22° (NNE) 3,193 8.0 -18.3°
